Location: Bremen
(53.0830°N, 8.8000°E)
Time: 14:49:34
(UTC+01:00)

Envisat - Pass Details

Date: 13 November 2025
Orbit: 761 x 762 km, 98.4° (Epoch: 13 December)

Event Time Altitude Azimuth Distance (km) Brightness Sun altitude
Rises 02:59:58 0° 17° (NNE) 3,239 6.8 -41.8°
Reaches altitude 10° 03:02:19 10° 22° (NNE) 2,309 5.9 -41.5°
Enters shadow 03:02:26 11° 22° (NNE) 2,268 5.9 -41.5°
